Eugene, OR

4:34 PM PST on November 20, 2019 (GMT -0800)
Mahlon Sweet

Weather History for KEUG - September, 2019

Change the Weather History Date:

Saturday, September 7, 2019

  Actual Average Record
Temperature  
Mean Temperature 63 °F 64 °F  
Max Temperature 69 °F 79 °F 98 °F (1958)
Min Temperature 56 °F 49 °F 38 °F (1929)
Degree Days  
Heating Degree Days 2 2  
Month to date heating degree days 2 14  
Since 1 July heating degree days 14 81  
Cooling Degree Days 0 2  
Month to date cooling degree days 35 14  
Year to date cooling degree days 343 222  
Growing Degree Days 16 (Base 50)    
Moisture  
Dew Point 57 °F    
Average Humidity 76    
Maximum Humidity 90    
Minimum Humidity 61    
Precipitation  
Precipitation T in 0.04 in 0.93 in (1938)
Month to date precipitation 0.05 0.24  
Year to date precipitation 23.26 26.25  
Sea Level Pressure  
Sea Level Pressure 30.04 in    
Wind  
Wind Speed 5 mph (WSW)    
Max Wind Speed 16 mph    
Max Gust Speed 19 mph    
Visibility 9 miles    
Events      
T = Trace of Precipitation, MM = Missing Value Source: NWS Daily Summary

Daily Weather History Graph

Daily Weather History Graph

Search for Another Location

Airport or City:

Astronomy

Sep. 07, 2019 Rise Set
Actual Time 6:42 AM PDT 7:38 PM PDT
Civil Twilight 6:13 AM PDT 8:07 PM PDT
Nautical Twilight 5:38 AM PDT 8:42 PM PDT
Astronomical Twilight 5:01 AM PDT 9:19 PM PDT
Moon 4:09 PM PDT (9/7) 12:29 AM PDT (9/7)
Length of Visible Light 13h 54m
Length of Day
12h 55m
Waxing Gibbous, 67% of the Moon is Illuminated
Sep 7
Waxing Gibbous
Sep 13
Full
Sep 21
Last Quarter
Sep 28
New
Oct 5
First Quarter

Hourly Weather History & Observations

Time (PDT) Temp. Dew Point Humidity Pressure Visibility Wind Dir Wind Speed Gust Speed Precip Events Conditions
12:54 AM 59.0 °F 55.0 °F 87% 30.08 in 10.0 mi Calm Calm - N/A   Clear
1:52 AM 57.2 °F 55.4 °F 94% 30.08 in 10.0 mi Calm Calm - N/A   Mostly Cloudy
1:54 AM 57.0 °F 54.0 °F 89% 30.08 in 10.0 mi Calm Calm - N/A   Mostly Cloudy
2:54 AM 61.0 °F 57.9 °F 90% 30.08 in 10.0 mi Calm Calm - N/A   Overcast
3:54 AM 62.1 °F 57.9 °F 86% 30.05 in 10.0 mi Calm Calm - N/A   Overcast
4:54 AM 62.1 °F 57.9 °F 86% 30.04 in 10.0 mi Calm Calm - N/A   Overcast
5:54 AM 62.1 °F 57.0 °F 84% 30.04 in 10.0 mi WNW 3.5 mph - N/A   Overcast
6:47 AM 62.1 °F 57.0 °F 84% 30.05 in 10.0 mi Calm Calm - N/A   Overcast
6:54 AM 62.1 °F 57.0 °F 84% 30.04 in 10.0 mi Calm Calm - N/A   Overcast
7:54 AM 62.1 °F 57.9 °F 86% 30.04 in 8.0 mi Calm Calm - 0.00 in   Light Drizzle
8:19 AM 62.1 °F 57.9 °F 86% 30.05 in 5.0 mi Calm Calm - 0.00 in   Light Drizzle
8:31 AM 62.1 °F 59.0 °F 90% 30.04 in 4.0 mi Calm Calm - 0.00 in   Light Drizzle
8:54 AM 63.0 °F 59.0 °F 87% 30.03 in 4.0 mi Calm Calm - 0.00 in   Light Drizzle
9:54 AM 64.0 °F 59.0 °F 84% 30.02 in 7.0 mi Calm Calm - 0.00 in   Overcast
10:34 AM 64.9 °F 59.0 °F 81% 30.02 in 8.0 mi Calm Calm - N/A   Overcast
10:54 AM 64.9 °F 59.0 °F 81% 30.02 in 9.0 mi Calm Calm - N/A   Overcast
11:49 AM 66.2 °F 60.8 °F 83% 30.01 in 10.0 mi WSW 4.6 mph - N/A   Overcast
11:54 AM 66.0 °F 59.0 °F 78% 30.01 in 10.0 mi SW 3.5 mph - N/A   Overcast
12:54 PM 66.9 °F 59.0 °F 76% 30.01 in 10.0 mi WSW 6.9 mph - N/A   Overcast
1:54 PM 69.1 °F 57.9 °F 68% 30.01 in 10.0 mi SW 9.2 mph - N/A   Overcast
2:54 PM 68.0 °F 57.9 °F 70% 30.02 in 10.0 mi SW 12.7 mph - N/A   Overcast
3:54 PM 68.0 °F 57.0 °F 68% 30.03 in 10.0 mi SW 12.7 mph - N/A   Overcast
4:54 PM 69.1 °F 55.9 °F 63% 30.03 in 10.0 mi SW 10.4 mph - N/A   Overcast
5:54 PM 66.9 °F 55.9 °F 68% 30.02 in 10.0 mi SW 11.5 mph - N/A   Mostly Cloudy
6:54 PM 66.9 °F 55.0 °F 66% 30.02 in 10.0 mi WSW 11.5 mph - N/A   Mostly Cloudy
7:54 PM 64.0 °F 55.9 °F 75% 30.03 in 10.0 mi SW 6.9 mph - N/A   Mostly Cloudy
8:54 PM 64.0 °F 55.9 °F 75% 30.04 in 10.0 mi WSW 9.2 mph - N/A   Mostly Cloudy
9:54 PM 64.0 °F 55.9 °F 75% 30.04 in 10.0 mi SW 6.9 mph - N/A   Mostly Cloudy
10:13 PM 64.0 °F 55.0 °F 73% 30.04 in 10.0 mi WSW 6.9 mph - N/A   Overcast
10:54 PM 63.0 °F 55.0 °F 75% 30.04 in 10.0 mi WSW 6.9 mph - N/A   Overcast
11:54 PM 63.0 °F 55.0 °F 75% 30.04 in 10.0 mi WSW 4.6 mph - N/A   Overcast